This demonstration page uses our WeatherBlox Daily Observations layout. Learn more.

Left ArrowRight Arrow

41.86663, -103.66717

Hourly Observations for July 9, 2018

Temp ( °F °C ) Dew Point ( °F °C ) Humidity (%) Winds ( mph kmh ) Pressure ( in mb ) Visibility ( mi km ) Precip ( " mm )
12:53 am 00:53 Clear 70 21.1 60 15.6 71 71 E 12 19 30.01 1016 10 16.0934 N/A
1:53 am 01:53 Clear 70 21.1 58 14.4 66 66 E 8 13 30.01 1016 10 16.0934 N/A
2:53 am 02:53 Clear 68 20 58 14.4 70 70 E 8 13 30.01 1016 10 16.0934 N/A
3:53 am 03:53 Clear 67 19.4 58 14.4 73 73 E 9 15 30.02 1017 10 16.0934 N/A
4:53 am 04:53 Clear 65 18.3 58 14.4 78 78 E 6 9 30.03 1017 10 16.0934 N/A
5:53 am 05:53 Sunny 62 16.7 58 14.4 86 86 NNW 3 6 30.06 1018 10 16.0934 N/A
6:53 am 06:53 Sunny 68 20 60 15.6 76 76 E 8 13 30.06 1018 10 16.0934 N/A
7:53 am 07:53 Sunny 75 23.9 60 15.6 60 60 NE 9 15 30.09 1019 10 16.0934 N/A
8:53 am 08:53 Sunny 79 26.1 60 15.6 52 52 ENE 12 19 30.1 1019 10 16.0934 N/A
9:53 am 09:53 Sunny 82 27.8 61 16.1 49 49 ESE 10 17 30.1 1019 10 16.0934 N/A
10:53 am 10:53 Sunny 85 29.4 63 17.2 48 48 SE 10 17 30.09 1019 10 16.0934 N/A
11:53 am 11:53 Sunny 89 31.7 65 18.3 45 45 E 10 17 30.08 1019 10 16.0934 N/A
12:53 pm 12:53 Sunny 93 33.9 64 17.8 38 38 E 13 20 30.06 1018 10 16.0934 N/A
1:53 pm 13:53 Sunny 95 35 61 16.1 32 32 E 17 28 30.04 1017 10 16.0934 N/A
2:53 pm 14:53 Sunny 96 35.6 54 12.2 24 24 SE 16 26 30.04 1017 10 16.0934 N/A
3:53 pm 15:53 Sunny 96 35.6 51 10.6 22 22 SE 16 26 30.03 1017 10 16.0934 N/A
4:53 pm 16:53 Sunny 96 35.6 51 10.6 22 22 SSE 14 22 30.01 1016 10 16.0934 N/A
5:53 pm 17:53 Sunny 94 34.4 51 10.6 23 23 ESE 15 24 30.01 1016 10 16.0934 N/A
6:53 pm 18:53 Sunny 91 32.8 56 13.3 31 31 SE 13 20 30 1016 10 16.0934 N/A
7:53 pm 19:53 Sunny 85 29.4 56 13.3 37 37 ESE 10 17 30.01 1016 10 16.0934 N/A
8:53 pm 20:53 Clear 76 24.4 58 14.4 54 54 ESE 8 13 30.03 1017 10 16.0934 N/A
9:53 pm 21:53 Clear 74 23.3 57 13.9 56 56 ESE 9 15 30.05 1018 10 16.0934 N/A
10:53 pm 22:53 Clear 72 22.2 57 13.9 59 59 E 7 11 30.06 1018 10 16.0934 N/A
11:53 pm 23:53 Clear 71 21.7 56 13.3 59 59 ESE 9 15 30.04 1017 10 16.0934 N/A

Powered by AerisWeather